EHI
0 0 0 0 0 0 0 0 0 0 0 0 0 0 0 0 0 0 0 0 0 0 0 0 0 0 0 0 0 0 0 0 0 0 0 0 0 0 0 0 0 0 0 0
0 0 0 0 0 0 0 0 0 0 0 0 0 0 0 0 0 0 0 0 0 0 0 0 0 0 0 0 0 0 0 0 0 0 0 0 0 0 0 0 0 0 0 0
0 0 0 0 0 0 0 0 0 0 0 0 0 0 0 0 0 0 0 0 0 0 0 0 0 0 0 0 0 0 0 0 0 0 0 0 0 0 0 0 0 0 0 0
0 0 0 0 0 0 0 0 0 0 0 0 0 0 0 0 0 0 0 0 0 0 0 0 0 0 0 0 0 0 0 0 0 0 0 0 0 0 0 0 0 0 0 0
0 0 0 0 0 0 0 0 0 0 0 0 0 0 0 0 0 0 0 0 0 0 0 0 0 0 0 0 0 0 0 0 0 0 0 0 0 0 0 0 0 0 0 0
0 0 0 0 0 0 0 0 0 0 0 0 0 0 0 0 0 0 0 0 0 0 0 0 0 0 0 0 0 0 0 0 0 0 0 0 0 0 0 0 0 0 0 0
0 0 0 0 0 0 0 0 0 0 0 0 0 0 0 0 0 0 0 0 0 0 0 0 0 0 0 0 0 0 0 0 0 0 0 0 0 0 0 0 0 0 0 0
0 0 0 0 0 0 0 0 0 0 0 0 0 0 0 0 0 0 0 0 0 0 0 0 0 0 0 0 0 0 0 0 0 0 0 0 0 0 0 0 0 0 0 0
0 0 0 0 0 0 0 0 0 0 0 0 0 0 0 0 0 0 0 0 0 0 0 0 0 0 0 0 0 0 0 0 0 0 0 0 0 0 0 0 0 0 0 0
0 0 0 0 0 0 0 0 0 0 0 0 0 0 0 0 0 0 0 0 0 0 0 0 0 0 0 0 0 0 0 0 0 0 0 0 0 0 0 0 0 0 0 0
0 0 0 0 0 0 0 0 0 0 0 0 0 0 0 0 0 0 0 0 0 0 0 0 0 0 0 0 0 0 0 0 0 0 0 0 0 0 0 0 0 0 0 0
0 0 0 0 0 0 0 0 0 0 0 0 0 0 0 0 0 0 0 0 0 0 0 0 0 0 0 0 0 0 0 0 0 0 0 0 0 0 0 0 0 0 0 0
0 0 0 0 0 0 0 0 0 0 0 0 0 0 0 0 0 0 0 0 0 0 0 0 0 0 0 0 0 0 0 0 0 0 0 0 0 0 0 0 0 0 0 0
0 0 0 0 0 0 0 0 0 0 0 0 0 0 0 0 0 0 0 0 0 0 0 0 0 0 0 0 0 0 0 0 0 0 0 0 0 0 0 0 0 0 0 0
0 0 0 0 0 0 0 0 0 0 0 0 0 0 0 0 0 0 0 0 0 0 0 0 0 0 0 0 0 0 0 0 0 0 0 0 0 0 0 0 0 0 0 0
0 0 0 0 0 0 0 0 0 0 0 0 0 0 0 0 0 0 0 0 0 0 0 0 0 0 0 0 0 0 0 0 0 0 0 0 0 0 0 0 0 0 0 0
0 0 0 0 0 0 0 0 0 0 0 0 0 0 0 0 0 0 0 0 0 0 0 0 0 0 0 0 0 0 0 0 0 0 0 0 0 0 0 0 0 0 0 0
0 0 0 0 0 0 0 0 0 0 0 0 0 0 0 0 0 0 0 0 0 0 0 0 0 0 0 0 0 0 0 0 0 0 0 0 0 0 0 0 0 0 0 0
0 0 0 0 0 0 0 0 0 0 0 0 0 0 0 0 0 0 0 0 0 0 0 0 0 0 0 0 0 0 0 0 0 0 0 0 0 0 0 0 0 0 0 0
0 0 0 0 0 0 0 0 0 0 0 0 0 0 0 0 0 0 0 0 0 0 0 0 0 0 0 0 0 0 0 0 0 0 0 0 0 0 0 0 0 0 0 0
0 0 0 0 0 0 0 0 0 0 0 0 0 0 0 0 0 0 0 0 0 0 0 0 0 0 0 0 0 0 0 0 0 0 0 0 0 0 0 0 0 0 0 0
0 0 0 0 0 0 0 0 0 0 0 0 0 0 0 0 0 0 0 0 0 0 0 0 0 0 0 0 0 0 0 0 0 0 0 0 0 0 0 0 0 0 0 0
0 0 0 0 0 0 0 0 0 0 0 0 0 0 0 0 0 0 0 0 0 0 0 0 0 0 0 0 0 0 0 0 0 0 0 0 0 0 0 0 0 0 0 0
0 0 0 0 0 0 0 0 0 0 0 0 0 0 0 0 0 0 0 0 0 0 0 0 0 0 0 0 0 0 0 0 0 0 0 0 0 0 0 0 0 0 0 0
0 0 0 0 0 0 0 0 0 0 0 0 0 0 0 0 0 0 0 0 0 0 0 0 0 0 0 0 0 0 0 0 0 0 0 0 0 0 0 0 0 0 0 0
0 0 0 0 0 0 0 0 0 0 0 0 0 0 0 0 0 0 0 0 0 0 0 0 0 0 0 0 0 0 0 0 0 0 0 0 0 0 0 0 0 0 0 0
Wind_Speed
4 5 1 2 2 3 2 2 3 4 3 1 3 6 8 5 3 4 4 5 5 5 3 2 2 3 3 2 2 2 2 2 2 2 1 1 1 1 2 2 3 3 3 3
5 2 3 2 1 1 1 1 2 3 2 1 3 7 7 4 4 5 6 6 5 4 3 3 3 3 3 3 2 2 2 2 1 1 1 1 0 0 1 1 2 3 3 3
1 2 2 1 2 2 1 2 2 2 4 3 4 6 4 2 2 3 4 4 4 6 6 5 4 4 3 3 4 3 3 2 1 1 1 1 1 1 2 2 2 3 3 3
1 2 1 2 1 1 2 1 1 1 2 3 3 4 6 3 4 3 3 3 4 4 4 4 4 4 4 4 3 3 3 2 2 2 2 2 1 0 1 1 2 3 3 3
2 2 2 1 2 0 1 1 1 1 1 2 1 1 8 2 3 5 4 3 4 4 4 5 5 5 4 3 3 2 2 2 2 2 2 2 1 1 1 1 2 2 2 2
1 1 0 1 1 0 0 3 4 4 3 2 2 3 8 4 5 4 4 3 4 3 3 4 3 3 2 2 2 2 2 2 2 2 2 2 2 2 1 2 2 2 2 2
4 2 2 1 2 3 4 4 5 5 4 4 1 2 10 6 4 4 5 5 4 3 3 3 3 3 3 3 3 3 3 3 3 3 3 3 3 3 3 2 2 2 2 2
2 4 2 1 1 1 1 4 4 3 3 5 2 6 9 4 4 3 3 3 1 2 2 3 4 4 4 4 4 4 4 4 3 3 3 3 3 2 2 3 2 3 2 3
2 4 2 1 0 2 2 2 2 4 0 3 6 7 9 2 2 1 1 1 0 1 2 3 3 3 4 4 4 5 4 4 3 3 3 3 3 3 3 3 2 2 3 3
3 2 3 3 1 2 1 4 3 3 1 4 6 5 5 4 2 2 1 2 2 1 1 2 2 3 3 3 3 3 4 4 4 3 3 3 3 3 3 2 3 3 3 3
2 2 3 2 2 3 2 2 3 2 2 3 4 8 5 5 3 2 3 3 3 3 3 3 3 2 2 2 2 3 3 3 3 3 3 3 3 3 3 3 3 3 3 3
2 3 3 5 2 1 3 4 5 3 3 3 3 10 4 4 4 3 3 3 3 3 3 3 3 2 2 2 2 3 3 4 4 3 3 3 3 3 3 4 4 3 3 3
3 3 2 4 2 0 2 3 4 3 3 4 5 10 3 1 2 2 2 4 4 4 4 3 2 3 3 3 3 3 3 4 3 3 3 3 3 4 4 4 4 3 3 3
3 3 6 7 5 3 4 4 5 5 4 6 10 12 8 6 6 5 5 5 5 5 4 4 3 4 3 3 3 3 4 3 3 3 3 4 5 5 5 4 4 4 3 3
3 4 6 8 7 5 8 9 9 10 10 11 11 11 13 8 6 6 5 5 5 5 5 5 4 4 4 4 4 3 4 3 3 3 4 5 5 4 4 4 4 4 4 4
2 3 3 6 6 7 11 13 13 13 12 13 13 16 9 5 4 5 6 6 6 6 6 5 5 5 5 5 4 4 4 4 3 4 5 5 4 4 4 4 4 4 4 4
3 3 2 5 3 4 11 12 14 9 9 9 12 11 4 3 5 6 6 6 7 7 6 6 5 5 5 5 5 5 4 3 3 4 5 4 4 5 5 4 4 4 4 4
7 5 3 3 1 10 9 2 7 8 7 8 7 6 4 6 6 5 6 5 6 6 6 6 5 5 4 4 4 4 3 3 4 4 5 5 4 5 4 4 5 5 4 4
7 7 4 3 5 11 9 4 5 6 6 6 8 7 5 3 3 4 4 5 5 5 5 5 5 4 4 4 3 3 3 3 4 5 5 5 5 5 4 5 6 5 4 4
3 4 5 5 6 9 6 2 2 3 5 4 5 5 3 1 2 5 4 3 4 5 4 4 4 3 3 4 3 3 4 4 6 6 6 5 5 5 6 6 5 4 4 5
3 4 7 8 8 10 7 2 3 3 6 2 3 4 4 5 6 5 4 4 4 5 5 4 3 3 4 3 2 4 4 6 6 5 5 5 5 5 5 5 4 3 4 3
8 7 7 6 8 12 3 5 5 6 3 2 3 4 4 5 6 5 5 5 5 5 5 4 3 4 4 3 3 5 6 6 4 4 4 5 5 4 4 4 4 3 4 4
9 10 7 10 10 4 3 5 4 3 4 4 4 4 4 5 6 6 6 5 5 5 5 4 4 5 5 4 4 6 7 5 4 4 5 5 4 4 3 4 4 3 3 3
6 3 4 7 9 7 7 6 6 4 5 5 5 5 4 6 6 6 6 6 5 5 5 4 4 5 6 5 5 6 6 4 4 5 5 4 4 4 3 3 3 4 4 4
7 5 5 9 8 7 7 7 7 6 6 6 6 5 6 6 7 7 6 6 5 5 5 4 5 6 7 6 6 6 5 4 5 5 5 4 4 4 4 4 4 5 5 6
7 8 8 10 8 7 8 6 5 6 7 7 6 6 5 5 7 6 6 5 5 5 5 5 6 6 7 6 6 6 5 4 5 5 4 3 3 3 3 3 3 5 6 8
Wind_Direction
22 57 31 256 222 214 197 198 269 280 304 326 251 270 275 263 223 229 229 222 221 223 223 183 176 163 145 143 140 136 123 108 95 85 80 57 24 14 19 19 17 16 14 10
39 3 273 274 265 137 172 238 290 310 346 339 293 284 274 248 226 219 219 221 220 220 211 193 181 173 171 172 170 161 155 139 128 123 132 138 155 321 331 352 5 5 5 359
130 273 309 59 43 66 9 198 233 299 340 19 350 314 294 290 256 247 230 217 212 208 207 200 194 193 185 192 189 178 172 154 147 125 99 79 56 21 5 358 352 347 348 350
358 325 29 50 15 72 297 251 208 4 22 324 29 306 291 293 301 276 260 242 228 218 205 199 196 199 203 207 193 184 169 157 150 139 133 139 146 210 270 295 311 325 341 341
329 352 29 23 303 261 238 346 29 55 112 341 7 226 285 317 288 280 268 251 242 219 202 204 204 202 202 193 187 191 170 165 160 153 161 160 188 218 263 301 315 322 328 331
288 310 340 263 320 103 190 48 47 48 63 317 245 182 278 255 241 275 275 259 244 222 208 214 211 189 190 180 177 184 177 189 176 175 178 180 205 225 264 298 306 310 314 319
344 342 351 14 30 17 52 69 25 2 4 262 258 218 254 260 255 252 262 262 243 213 198 205 204 199 200 197 194 192 194 212 201 194 196 197 208 213 226 254 274 289 300 302
7 309 318 356 138 156 94 118 145 208 249 290 301 243 258 275 285 272 256 249 225 209 207 213 215 210 210 208 200 198 207 221 211 206 213 209 208 213 230 236 245 261 268 277
169 272 320 329 298 137 124 146 156 134 150 282 276 285 299 296 332 8 16 33 198 224 228 232 231 220 216 214 213 211 213 224 223 217 215 215 214 216 233 244 247 260 266 275
160 261 302 316 39 33 124 145 108 122 172 279 293 280 261 288 296 324 330 310 290 279 264 263 252 240 236 226 222 216 216 222 226 220 221 223 225 227 230 237 249 257 267 271
139 176 306 339 205 195 134 134 130 128 167 188 276 273 231 225 236 265 277 285 275 270 264 261 256 245 244 244 234 230 229 228 228 223 222 228 235 233 231 235 245 250 260 263
144 130 265 262 252 192 187 186 157 167 224 197 226 269 270 231 240 249 276 298 302 290 275 263 256 247 243 249 251 243 237 233 234 226 225 233 238 232 232 240 245 243 250 256
147 129 344 335 340 154 222 206 183 156 151 187 211 262 297 307 271 262 280 300 305 300 287 276 265 252 249 249 249 248 243 240 241 230 232 241 241 235 237 240 241 239 241 252
136 177 194 217 229 196 227 223 193 172 200 226 230 255 283 289 295 298 295 290 287 280 275 267 263 256 254 254 253 254 254 245 241 232 232 240 240 234 236 238 236 235 233 239
141 227 236 250 257 245 242 239 218 214 216 225 244 247 261 261 262 268 271 275 280 279 273 260 253 253 253 258 259 254 253 248 237 235 238 243 245 237 233 234 236 235 233 238
165 230 251 268 251 248 259 248 233 234 234 240 258 268 266 261 256 265 268 266 269 268 263 262 257 252 251 251 254 254 251 249 237 240 247 251 248 242 237 236 235 234 239 242
190 188 225 269 284 295 261 234 216 215 212 205 231 247 268 266 257 253 257 259 260 263 264 262 258 249 250 249 243 244 245 246 242 248 253 249 243 242 242 240 234 236 240 240
182 185 219 266 315 245 245 211 199 212 232 214 233 254 250 251 260 259 247 245 260 264 265 263 257 254 253 250 249 251 249 242 245 252 254 250 243 244 244 236 236 240 239 237
194 186 204 219 247 273 285 247 185 193 251 217 225 254 270 287 310 287 247 227 239 252 256 255 251 249 251 252 247 249 254 250 249 251 251 249 244 244 240 237 239 238 234 240
169 187 201 211 233 249 252 241 176 136 264 232 200 232 246 125 301 274 274 273 273 272 266 262 259 253 252 254 241 241 253 253 253 252 252 250 243 240 240 240 239 235 229 238
157 191 214 224 242 262 254 209 125 189 249 268 209 224 212 215 232 255 274 278 276 279 279 276 267 257 254 249 233 248 256 254 256 259 258 254 247 243 243 241 239 231 230 232
184 188 203 197 226 252 213 142 188 229 270 273 250 238 236 251 265 269 271 273 281 285 284 279 269 267 264 243 227 249 257 259 264 264 264 261 257 252 244 235 239 226 217 226
206 199 197 204 223 251 198 214 242 247 262 266 261 263 255 265 270 270 270 274 277 275 275 270 259 268 270 249 227 246 259 262 264 266 267 266 263 256 240 229 233 228 214 219
243 216 216 250 260 264 263 259 258 250 252 261 262 265 259 261 267 273 274 275 274 272 271 268 261 263 270 263 247 247 259 257 252 257 264 264 258 258 249 236 225 220 217 219
224 196 225 253 269 284 268 245 252 256 253 260 268 263 253 255 266 267 270 270 269 273 272 264 257 261 266 267 262 259 253 244 247 252 256 256 252 251 250 244 232 225 223 218
205 201 216 246 244 243 263 264 256 255 260 260 265 273 265 245 253 260 261 261 262 267 268 266 263 262 267 267 266 265 251 233 235 249 251 247 249 249 246 250 268 252 243 247